Weather Service Report


664 
ASUS46 KSEW 290210
RWRWA 

WASHINGTON REGIONAL WEATHER ROUNDUP
NATIONAL WEATHER SERVICE SEATTLE WA
700 PM PDT THU MAY 28 2015

NOTE:"FAIR" INDICATES FEW OR NO CLOUDS BELOW 12,000 FEET WITH NO 
SIGNIFICANT WEATHER AND/OR OBSTRUCTIONS TO VISIBILITY.

WAZ505-507>509-290300-
SEATTLE, TACOMA, EVERETT, AND VICINITY
  
CITY           SKY/WX    TMP DP  RH WIND       PRES   REMARKS
EVERETT        MOSUNNY   71  54  54 N7        30.02R                  
BOEING FIELD   SUNNY     80  50  34 VRB7      29.98S                  
RENTON         SUNNY     78  55  44 NW7       29.98S                  
SEATAC AIRPORT MOSUNNY   80  52  37 N8        30.00S                  
JBLM-MCCHORD   MOSUNNY   81  59  47 NE6       29.98S                  
PUYALLUP       FAIR      79  54  41 CALM      30.00S                  
BREMERTON      SUNNY     77  57  50 NE8       30.02R                  
JBLM-FT LEWIS  MOSUNNY   81  56  41 VRB2      29.98S                  
TACOMA NARROWS SUNNY     77  54  44 NE6       29.99S                  
$$
 
WAZ001-503-506-510-514-515-290300-
NORTH INTERIOR
  
CITY           SKY/WX    TMP DP  RH WIND       PRES   REMARKS
BELLINGHAM     SUNNY     72  56  57 CALM      29.99S                  
FRIDAY HARBOR  MOSUNNY   67  54  63 VRB7      30.00F                  
EASTSOUND      MOSUNNY   68  55  64 CALM      29.97F                  
PORT ANGELES   MOSUNNY   60  52  74 W7        30.02F                  
PORT TOWNSEND  FAIR      66  55  68 NW7       30.00S                  
NAS WHIDBEY    MOSUNNY   58  56  93 W6        30.05S                  
ARLINGTON      MOSUNNY   72  55  56 NW12      29.99R                  
BURLINGTON     SUNNY     68  57  68 CALM      29.99S                  
$$
 
WAZ020-022-039-040-504-511-512-290300-
SOUTHWEST INTERIOR
  
CITY           SKY/WX    TMP DP  RH WIND       PRES   REMARKS
SHELTON        SUNNY     75  55  49 SW15      29.96F                  
OLYMPIA        SUNNY     79  56  45 N9        29.98S                  
CHEHALIS       FAIR      81  61  50 NW6G12    29.98S HAZE             
KELSO          SUNNY     72  55  56 W9        30.02S                  
VANCOUVER      SUNNY     83  46  27 NW9       29.94S                  
SCAPPOOSE, OR  SUNNY     80  55  42 N10       29.94S                  
PORTLAND, OR   MOSUNNY   83  51  33 N9        29.94F                  
$$
 
WAZ021-516-517-290300-
WASHINGTON COAST
  
CITY           SKY/WX    TMP DP  RH WIND       PRES   REMARKS
FORKS          SUNNY     55  52  89 SW7       30.04F                  
HOQUIAM        PTSUNNY   56  53  90 SW10      30.04F FOG              
ASTORIA, OR    CLOUDY    56  51  84 W8        30.05F                  
$$
 
WAZ019-023-024-040-518-519-290300-
CASCADE MOUNTAINS AND COLUMBIA GORGE
  
CITY           SKY/WX    TMP DP  RH WIND       PRES   REMARKS
TROUTDALE, OR  MOSUNNY   84  50  30 VRB3      29.92F                  
THE DALLES, OR MOSUNNY   85  50  29 NW9       29.88S                  
$$

WAZ026-027-041>044-520-521-290300-
EAST SLOPES
  
CITY           SKY/WX    TMP DP  RH WIND       PRES   REMARKS
OMAK           PTSUNNY   76  51  41 S9        29.99F                  
WENATCHEE      PTSUNNY   83  46  27 SW7       29.95R                  
ELLENSBURG     MOSUNNY   81  47  30 CALM      29.96S                  
YAKIMA         MOSUNNY   86  43  22 E3        29.94S                  
$$

WAZ028-034-035-290300-
COLUMBIA BASIN
  
CITY           SKY/WX    TMP DP  RH WIND       PRES   REMARKS
EPHRATA        SUNNY     84  45  25 CALM      29.96R                  
MOSES LAKE     SUNNY     84  45  25 SE8       29.97R                  
PASCO          SUNNY     87  46  24 MISG      29.92F                  
HERMISTON, OR  SUNNY     86  48  26 E6        29.92S                  
$$

WAZ036>038-290300-
NORTHEAST WASHINGTON
  
CITY           SKY/WX    TMP DP  RH WIND       PRES   REMARKS
SPOKANE GEIGER PTSUNNY   77  48  35 NE8       30.05R THUNDER          
SPOKANE FELTS  PTSUNNY   68  58  70 NE6       30.06R                  
FAIRCHILD AFB  PTSUNNY   72  51  47 NE6       30.05S THUNDER          
COEURDALENE,ID PTSUNNY   64  46  52 E15G28    30.07R                  
DEER PARK      PTSUNNY   75  54  47 NE8       30.06R                  
$$

WAZ029>033-290300-
SOUTHEAST WASHINGTON
  
CITY           SKY/WX    TMP DP  RH WIND       PRES   REMARKS
PULLMAN        SUNNY     74  50  42 N5        30.08S                  
LEWISTON, ID   SUNNY     80  46  30 NE9       30.01S                  
WALLA WALLA    SUNNY     84  49  29 NE9       29.96S                  
PENDLETON, OR  SUNNY     80  49  33 E7        29.96R                  
$$

Return to Home page


Western Regional Climate Center, wrcc@dri.edu